QPF
0.05 0.04 0.03 0.02 0.01 0.01 0.02 0.02 0.02 0.01 0.00 0.00 0.00 0.00 0.00 0.00 0.00 0.00 0.00 0.00 0.00 0.00 0.01 0.01 0.02 0.02 0.03 0.04 0.05 0.05 0.05 0.06 0.07 0.06 0.05 0.04 0.03 0.02
0.04 0.03 0.03 0.02 0.02 0.02 0.01 0.01 0.01 0.01 0.01 0.00 0.00 0.00 0.00 0.00 0.00 0.00 0.00 0.00 0.00 0.00 0.00 0.01 0.01 0.01 0.01 0.02 0.03 0.05 0.06 0.08 0.09 0.07 0.05 0.04 0.03 0.03
0.07 0.05 0.04 0.02 0.02 0.01 0.01 0.01 0.01 0.01 0.01 0.00 0.00 0.00 0.00 0.00 0.00 0.00 0.00 0.00 0.00 0.00 0.00 0.00 0.01 0.01 0.01 0.01 0.01 0.02 0.04 0.06 0.08 0.09 0.08 0.06 0.05 0.03
0.06 0.06 0.05 0.03 0.02 0.01 0.01 0.00 0.00 0.00 0.00 0.00 0.00 0.00 0.00 0.00 0.00 0.00 0.00 0.00 0.00 0.00 0.00 0.00 0.01 0.02 0.02 0.02 0.01 0.01 0.02 0.03 0.05 0.07 0.08 0.08 0.06 0.05
0.05 0.03 0.03 0.02 0.02 0.01 0.01 0.01 0.00 0.00 0.00 0.00 0.00 0.00 0.00 0.00 0.00 0.00 0.00 0.00 0.00 0.00 0.00 0.00 0.01 0.01 0.03 0.03 0.03 0.02 0.01 0.02 0.03 0.05 0.07 0.07 0.06 0.05
0.04 0.03 0.02 0.02 0.01 0.01 0.01 0.00 0.00 0.00 0.00 0.00 0.00 0.00 0.00 0.00 0.00 0.00 0.00 0.00 0.00 0.00 0.00 0.00 0.01 0.01 0.02 0.02 0.03 0.04 0.03 0.03 0.03 0.04 0.05 0.06 0.06 0.05
0.03 0.03 0.02 0.02 0.01 0.01 0.01 0.00 0.00 0.00 0.00 0.00 0.00 0.00 0.00 0.00 0.00 0.00 0.00 0.00 0.00 0.00 0.00 0.00 0.00 0.01 0.02 0.02 0.03 0.04 0.05 0.05 0.05 0.04 0.04 0.05 0.05 0.05
0.03 0.03 0.03 0.03 0.02 0.01 0.01 0.00 0.00 0.00 0.00 0.00 0.00 0.00 0.00 0.00 0.00 0.00 0.00 0.00 0.00 0.00 0.00 0.00 0.00 0.01 0.01 0.02 0.03 0.04 0.06 0.06 0.06 0.06 0.05 0.04 0.03 0.03
0.03 0.02 0.02 0.03 0.03 0.02 0.01 0.01 0.00 0.00 0.01 0.01 0.00 0.00 0.00 0.00 0.00 0.01 0.01 0.01 0.00 0.00 0.00 0.00 0.00 0.00 0.01 0.02 0.03 0.04 0.05 0.07 0.08 0.08 0.07 0.04 0.03 0.03
0.04 0.03 0.03 0.02 0.02 0.02 0.02 0.02 0.01 0.00 0.00 0.00 0.00 0.00 0.00 0.00 0.01 0.01 0.01 0.01 0.01 0.00 0.00 0.00 0.00 0.00 0.00 0.01 0.02 0.03 0.03 0.04 0.06 0.07 0.08 0.07 0.05 0.04
0.03 0.03 0.04 0.03 0.03 0.03 0.02 0.03 0.02 0.01 0.01 0.01 0.01 0.00 0.00 0.01 0.01 0.01 0.01 0.01 0.01 0.01 0.00 0.00 0.00 0.00 0.01 0.01 0.02 0.03 0.03 0.04 0.04 0.05 0.05 0.06 0.06 0.05
0.02 0.02 0.03 0.03 0.03 0.03 0.02 0.02 0.02 0.02 0.01 0.01 0.01 0.01 0.00 0.00 0.01 0.01 0.01 0.02 0.02 0.02 0.01 0.01 0.01 0.01 0.01 0.01 0.02 0.03 0.03 0.03 0.03 0.04 0.04 0.04 0.05 0.04
0.01 0.01 0.01 0.01 0.02 0.02 0.02 0.02 0.02 0.02 0.01 0.01 0.01 0.01 0.01 0.00 0.00 0.00 0.01 0.02 0.02 0.02 0.01 0.01 0.01 0.01 0.02 0.01 0.01 0.02 0.03 0.03 0.03 0.03 0.03 0.03 0.03 0.03
0.01 0.01 0.01 0.01 0.01 0.01 0.01 0.01 0.01 0.01 0.01 0.01 0.01 0.01 0.00 0.00 0.00 0.00 0.00 0.01 0.01 0.02 0.02 0.02 0.02 0.02 0.02 0.02 0.01 0.02 0.02 0.02 0.02 0.02 0.02 0.03 0.02 0.02
0.01 0.01 0.01 0.01 0.01 0.01 0.01 0.01 0.01 0.01 0.01 0.01 0.01 0.00 0.00 0.00 0.00 0.00 0.00 0.01 0.01 0.02 0.02 0.03 0.03 0.02 0.03 0.03 0.02 0.02 0.02 0.02 0.02 0.02 0.01 0.02 0.02 0.01
0.00 0.00 0.00 0.00 0.00 0.00 0.00 0.00 0.00 0.01 0.01 0.01 0.01 0.01 0.00 0.00 0.00 0.00 0.01 0.01 0.02 0.02 0.02 0.02 0.02 0.03 0.03 0.02 0.02 0.02 0.02 0.02 0.01 0.01 0.01 0.01 0.01 0.01
0.01 0.01 0.00 0.00 0.00 0.00 0.00 0.00 0.00 0.00 0.01 0.01 0.01 0.01 0.01 0.01 0.01 0.01 0.01 0.02 0.02 0.02 0.02 0.02 0.03 0.03 0.04 0.03 0.03 0.02 0.02 0.02 0.01 0.01 0.01 0.01 0.01 0.01
0.01 0.01 0.01 0.00 0.00 0.00 0.00 0.00 0.00 0.00 0.01 0.01 0.01 0.02 0.02 0.01 0.01 0.02 0.02 0.03 0.02 0.02 0.02 0.02 0.03 0.04 0.04 0.03 0.03 0.02 0.02 0.02 0.01 0.01 0.01 0.01 0.01 0.00
0.01 0.01 0.01 0.00 0.00 0.00 0.00 0.00 0.00 0.00 0.01 0.01 0.02 0.02 0.02 0.02 0.02 0.02 0.02 0.03 0.03 0.02 0.02 0.03 0.03 0.03 0.04 0.03 0.02 0.02 0.01 0.01 0.01 0.01 0.01 0.01 0.01 0.01
0.01 0.01 0.00 0.00 0.01 0.01 0.01 0.01 0.01 0.01 0.01 0.01 0.01 0.01 0.02 0.02 0.02 0.02 0.03 0.03 0.03 0.03 0.03 0.03 0.03 0.03 0.03 0.03 0.02 0.01 0.01 0.01 0.01 0.01 0.01 0.01 0.01 0.01
0.01 0.01 0.00 0.01 0.01 0.01 0.01 0.01 0.01 0.01 0.01 0.02 0.01 0.01 0.02 0.02 0.02 0.03 0.03 0.04 0.04 0.04 0.04 0.03 0.02 0.02 0.02 0.03 0.03 0.01 0.01 0.01 0.01 0.01 0.01 0.01 0.01 0.01
0.01 0.01 0.01 0.01 0.01 0.01 0.01 0.02 0.02 0.02 0.02 0.02 0.02 0.02 0.02 0.02 0.02 0.03 0.04 0.04 0.04 0.04 0.04 0.03 0.03 0.03 0.03 0.03 0.02 0.01 0.01 0.01 0.01 0.01 0.01 0.02 0.02 0.02
0.02 0.02 0.02 0.02 0.02 0.02 0.02 0.02 0.02 0.02 0.02 0.02 0.02 0.02 0.02 0.03 0.03 0.03 0.04 0.04 0.04 0.04 0.04 0.04 0.03 0.03 0.02 0.02 0.02 0.01 0.01 0.01 0.01 0.01 0.01 0.01 0.02 0.02
MSLP
1020.91 1021.01 1021.11 1021.18 1021.19 1021.12 1020.95 1020.67 1020.31 1019.90 1019.45 1019.01 1018.60 1018.27 1018.00 1017.81 1017.69 1017.61 1017.56 1017.51 1017.47 1017.41 1017.34 1017.26 1017.19 1017.11 1017.04 1016.98 1016.90 1016.81 1016.70 1016.55 1016.38 1016.17 1015.94 1015.69 1015.44 1015.19
1020.53 1020.59 1020.65 1020.70 1020.70 1020.63 1020.48 1020.25 1019.95 1019.60 1019.22 1018.84 1018.49 1018.17 1017.91 1017.71 1017.54 1017.41 1017.30 1017.20 1017.11 1017.02 1016.93 1016.85 1016.78 1016.73 1016.68 1016.64 1016.60 1016.54 1016.46 1016.35 1016.21 1016.04 1015.85 1015.64 1015.43 1015.21
1020.15 1020.16 1020.17 1020.17 1020.15 1020.07 1019.94 1019.75 1019.51 1019.23 1018.93 1018.62 1018.33 1018.06 1017.82 1017.61 1017.41 1017.24 1017.07 1016.91 1016.76 1016.62 1016.49 1016.39 1016.31 1016.26 1016.23 1016.21 1016.20 1016.17 1016.13 1016.07 1015.98 1015.87 1015.73 1015.57 1015.41 1015.23
1019.82 1019.77 1019.72 1019.67 1019.61 1019.51 1019.38 1019.22 1019.02 1018.80 1018.57 1018.34 1018.11 1017.89 1017.67 1017.47 1017.26 1017.05 1016.84 1016.63 1016.42 1016.24 1016.07 1015.94 1015.84 1015.78 1015.74 1015.73 1015.74 1015.74 1015.74 1015.72 1015.69 1015.63 1015.56 1015.47 1015.35 1015.23
1019.55 1019.45 1019.35 1019.25 1019.13 1019.00 1018.85 1018.69 1018.51 1018.33 1018.14 1017.96 1017.78 1017.60 1017.42 1017.23 1017.02 1016.80 1016.57 1016.33 1016.10 1015.88 1015.68 1015.52 1015.40 1015.31 1015.27 1015.25 1015.26 1015.28 1015.30 1015.32 1015.33 1015.33 1015.32 1015.29 1015.23 1015.16
1019.33 1019.19 1019.05 1018.89 1018.73 1018.55 1018.36 1018.17 1017.98 1017.80 1017.62 1017.46 1017.31 1017.16 1017.00 1016.83 1016.65 1016.44 1016.22 1015.98 1015.75 1015.52 1015.32 1015.15 1015.01 1014.91 1014.84 1014.81 1014.80 1014.81 1014.84 1014.87 1014.91 1014.95 1014.99 1015.01 1015.01 1014.98
1019.13 1018.97 1018.79 1018.59 1018.38 1018.14 1017.90 1017.66 1017.42 1017.20 1017.00 1016.83 1016.67 1016.53 1016.39 1016.25 1016.09 1015.92 1015.74 1015.54 1015.34 1015.15 1014.96 1014.80 1014.66 1014.55 1014.46 1014.40 1014.37 1014.36 1014.37 1014.40 1014.44 1014.50 1014.56 1014.62 1014.67 1014.69
1018.91 1018.73 1018.53 1018.30 1018.03 1017.75 1017.44 1017.12 1016.82 1016.54 1016.28 1016.06 1015.88 1015.72 1015.58 1015.46 1015.34 1015.22 1015.10 1014.97 1014.83 1014.70 1014.57 1014.44 1014.33 1014.22 1014.12 1014.04 1013.98 1013.93 1013.91 1013.91 1013.95 1014.00 1014.08 1014.16 1014.24 1014.30
1018.62 1018.43 1018.22 1017.96 1017.66 1017.31 1016.94 1016.56 1016.18 1015.81 1015.48 1015.19 1014.96 1014.77 1014.62 1014.51 1014.42 1014.35 1014.30 1014.25 1014.20 1014.15 1014.09 1014.03 1013.96 1013.88 1013.79 1013.70 1013.61 1013.54 1013.48 1013.46 1013.47 1013.51 1013.58 1013.67 1013.77 1013.86
1018.21 1018.03 1017.81 1017.54 1017.21 1016.83 1016.40 1015.95 1015.49 1015.05 1014.64 1014.27 1013.97 1013.73 1013.55 1013.44 1013.37 1013.35 1013.35 1013.38 1013.42 1013.47 1013.50 1013.51 1013.51 1013.47 1013.42 1013.34 1013.25 1013.17 1013.10 1013.05 1013.04 1013.07 1013.13 1013.22 1013.33 1013.44
1017.69 1017.51 1017.29 1017.01 1016.67 1016.27 1015.81 1015.31 1014.79 1014.28 1013.79 1013.36 1012.99 1012.69 1012.47 1012.33 1012.27 1012.27 1012.32 1012.41 1012.52 1012.65 1012.77 1012.87 1012.94 1012.98 1012.98 1012.95 1012.89 1012.82 1012.76 1012.72 1012.70 1012.72 1012.78 1012.87 1012.99 1013.11
1017.08 1016.89 1016.67 1016.40 1016.06 1015.65 1015.17 1014.65 1014.09 1013.53 1012.99 1012.49 1012.06 1011.70 1011.44 1011.26 1011.18 1011.17 1011.24 1011.37 1011.54 1011.73 1011.92 1012.11 1012.26 1012.38 1012.46 1012.50 1012.51 1012.49 1012.47 1012.46 1012.46 1012.49 1012.56 1012.65 1012.76 1012.88
1016.40 1016.21 1015.99 1015.71 1015.38 1014.97 1014.50 1013.96 1013.39 1012.81 1012.23 1011.69 1011.21 1010.81 1010.49 1010.27 1010.14 1010.11 1010.17 1010.30 1010.50 1010.73 1010.98 1011.24 1011.48 1011.69 1011.87 1012.00 1012.10 1012.16 1012.21 1012.25 1012.30 1012.35 1012.43 1012.52 1012.62 1012.73
1015.71 1015.49 1015.26 1014.99 1014.65 1014.25 1013.78 1013.26 1012.69 1012.10 1011.51 1010.95 1010.43 1009.99 1009.62 1009.35 1009.18 1009.11 1009.14 1009.25 1009.44 1009.70 1009.99 1010.30 1010.62 1010.93 1011.20 1011.45 1011.65 1011.82 1011.95 1012.07 1012.16 1012.26 1012.35 1012.43 1012.52 1012.60
1015.02 1014.78 1014.52 1014.23 1013.89 1013.48 1013.02 1012.51 1011.95 1011.36 1010.78 1010.21 1009.68 1009.21 1008.81 1008.50 1008.28 1008.17 1008.15 1008.24 1008.42 1008.67 1008.99 1009.35 1009.74 1010.13 1010.51 1010.86 1011.18 1011.45 1011.68 1011.87 1012.02 1012.14 1012.24 1012.32 1012.38 1012.42
1014.36 1014.07 1013.78 1013.45 1013.08 1012.66 1012.19 1011.68 1011.13 1010.55 1009.98 1009.42 1008.89 1008.41 1007.99 1007.66 1007.41 1007.26 1007.22 1007.27 1007.44 1007.70 1008.04 1008.44 1008.89 1009.36 1009.83 1010.28 1010.70 1011.06 1011.37 1011.62 1011.82 1011.96 1012.05 1012.10 1012.12 1012.11
1013.71 1013.37 1013.02 1012.65 1012.23 1011.78 1011.29 1010.76 1010.21 1009.64 1009.08 1008.53 1008.02 1007.55 1007.14 1006.80 1006.54 1006.38 1006.33 1006.38 1006.54 1006.81 1007.18 1007.62 1008.12 1008.66 1009.21 1009.74 1010.23 1010.67 1011.04 1011.32 1011.54 1011.67 1011.75 1011.76 1011.72 1011.66
1013.06 1012.67 1012.26 1011.82 1011.35 1010.84 1010.31 1009.75 1009.19 1008.62 1008.07 1007.55 1007.05 1006.61 1006.23 1005.91 1005.68 1005.54 1005.50 1005.57 1005.76 1006.06 1006.46 1006.95 1007.50 1008.10 1008.70 1009.29 1009.84 1010.31 1010.70 1011.00 1011.20 1011.31 1011.34 1011.29 1011.20 1011.07
1012.40 1011.97 1011.50 1010.99 1010.45 1009.89 1009.30 1008.71 1008.12 1007.55 1007.01 1006.51 1006.05 1005.65 1005.32 1005.05 1004.87 1004.78 1004.79 1004.90 1005.14 1005.48 1005.93 1006.47 1007.07 1007.71 1008.35 1008.98 1009.54 1010.03 1010.41 1010.69 1010.85 1010.91 1010.88 1010.77 1010.61 1010.42
1011.74 1011.27 1010.75 1010.19 1009.59 1008.97 1008.34 1007.71 1007.10 1006.53 1006.00 1005.52 1005.11 1004.76 1004.49 1004.29 1004.18 1004.16 1004.24 1004.42 1004.72 1005.13 1005.63 1006.21 1006.86 1007.53 1008.20 1008.83 1009.39 1009.85 1010.21 1010.43 1010.54 1010.54 1010.44 1010.26 1010.04 1009.79
1011.10 1010.61 1010.06 1009.46 1008.83 1008.16 1007.50 1006.84 1006.23 1005.65 1005.15 1004.71 1004.34 1004.06 1003.85 1003.73 1003.70 1003.77 1003.93 1004.19 1004.56 1005.03 1005.58 1006.20 1006.87 1007.56 1008.23 1008.84 1009.38 1009.80 1010.10 1010.27 1010.31 1010.24 1010.07 1009.83 1009.55 1009.25
1010.51 1010.03 1009.48 1008.87 1008.22 1007.55 1006.87 1006.21 1005.60 1005.05 1004.57 1004.17 1003.87 1003.65 1003.52 1003.48 1003.53 1003.67 1003.91 1004.24 1004.67 1005.19 1005.78 1006.42 1007.10 1007.78 1008.43 1009.01 1009.49 1009.86 1010.10 1010.20 1010.18 1010.04 1009.81 1009.51 1009.18 1008.85
1010.01 1009.56 1009.04 1008.46 1007.83 1007.17 1006.51 1005.88 1005.30 1004.78 1004.35 1004.01 1003.76 1003.61 1003.55 1003.58 1003.70 1003.91 1004.20 1004.59 1005.05 1005.59 1006.19 1006.83 1007.48 1008.13 1008.73 1009.26 1009.68 1009.98 1010.15 1010.19 1010.10 1009.91 1009.63 1009.29 1008.93 1008.56
Thickness
5579 5578 5578 5578 5577 5576 5575 5573 5570 5569 5570 5571 5571 5572 5571 5571 5571 5570 5570 5570 5570 5570 5570 5570 5570 5569 5569 5568 5568 5567 5566 5565 5565 5564 5562 5561 5560 5559
5569 5568 5568 5568 5567 5567 5566 5564 5563 5562 5561 5562 5561 5561 5561 5561 5561 5560 5560 5560 5560 5560 5560 5560 5560 5560 5559 5559 5558 5557 5557 5556 5556 5555 5554 5553 5552 5551
5559 5559 5559 5559 5558 5557 5556 5554 5553 5552 5551 5552 5551 5551 5550 5550 5551 5550 5550 5550 5550 5550 5551 5551 5551 5550 5550 5549 5549 5548 5547 5547 5546 5546 5545 5544 5544 5542
5549 5549 5548 5548 5548 5546 5545 5544 5542 5542 5541 5541 5541 5540 5540 5539 5540 5539 5539 5540 5540 5540 5541 5541 5541 5540 5540 5539 5539 5538 5538 5537 5537 5536 5536 5535 5535 5533
5538 5538 5538 5537 5536 5536 5534 5533 5532 5531 5530 5530 5530 5529 5528 5528 5527 5528 5528 5528 5529 5530 5530 5530 5530 5530 5529 5529 5528 5528 5528 5527 5527 5527 5526 5525 5525 5524
5528 5528 5527 5526 5526 5525 5524 5522 5520 5519 5518 5517 5517 5517 5515 5515 5515 5514 5515 5516 5517 5518 5518 5519 5519 5519 5518 5518 5517 5517 5517 5516 5516 5516 5516 5515 5515 5514
5516 5516 5516 5515 5515 5514 5514 5511 5509 5507 5505 5505 5504 5504 5503 5502 5502 5501 5501 5503 5504 5504 5505 5506 5507 5507 5507 5507 5507 5506 5505 5505 5506 5506 5506 5506 5505 5505
5504 5504 5503 5503 5503 5503 5502 5501 5499 5497 5495 5493 5493 5492 5492 5490 5489 5488 5487 5488 5490 5492 5490 5493 5493 5494 5495 5495 5496 5495 5495 5495 5495 5496 5496 5496 5496 5496
5491 5490 5490 5490 5490 5489 5488 5488 5487 5486 5486 5484 5482 5482 5481 5480 5477 5476 5475 5475 5477 5478 5476 5480 5480 5482 5483 5484 5484 5485 5484 5484 5484 5485 5485 5486 5486 5486
5477 5477 5476 5476 5476 5475 5474 5473 5472 5472 5472 5472 5472 5472 5470 5468 5467 5466 5465 5464 5465 5464 5463 5465 5467 5468 5471 5471 5472 5473 5473 5473 5473 5473 5474 5475 5476 5475
5463 5463 5463 5463 5463 5462 5460 5459 5458 5458 5459 5459 5459 5458 5457 5456 5454 5452 5450 5450 5452 5452 5450 5450 5453 5453 5456 5459 5460 5460 5461 5461 5461 5462 5463 5463 5464 5464
5449 5449 5449 5450 5450 5449 5447 5446 5445 5446 5445 5445 5444 5443 5442 5442 5441 5439 5438 5436 5437 5438 5438 5435 5437 5436 5441 5446 5446 5447 5447 5448 5448 5449 5450 5450 5451 5452
5435 5435 5436 5436 5436 5436 5435 5433 5433 5433 5431 5430 5429 5429 5428 5427 5426 5426 5425 5424 5424 5425 5425 5422 5422 5421 5422 5428 5431 5433 5433 5434 5435 5435 5436 5437 5438 5439
5422 5422 5422 5422 5422 5422 5421 5420 5420 5419 5417 5416 5415 5415 5414 5414 5413 5413 5412 5413 5413 5413 5413 5410 5409 5408 5408 5411 5415 5418 5419 5420 5421 5422 5423 5425 5425 5426
5408 5409 5409 5408 5408 5407 5407 5406 5405 5403 5403 5402 5403 5403 5402 5402 5400 5400 5400 5400 5400 5401 5400 5399 5398 5397 5396 5397 5400 5402 5405 5408 5408 5409 5410 5412 5413 5414
5394 5395 5395 5395 5393 5393 5393 5392 5391 5390 5390 5390 5391 5391 5389 5388 5387 5387 5387 5387 5387 5390 5389 5388 5387 5386 5386 5387 5388 5391 5392 5394 5397 5397 5398 5400 5401 5402
5379 5379 5379 5379 5378 5378 5378 5378 5378 5377 5377 5378 5378 5378 5377 5377 5376 5375 5375 5375 5376 5378 5378 5377 5376 5376 5377 5378 5380 5382 5383 5384 5385 5386 5387 5389 5391 5392
5367 5367 5367 5367 5367 5367 5366 5366 5366 5365 5365 5365 5366 5366 5366 5366 5365 5365 5364 5365 5367 5368 5368 5367 5366 5366 5367 5370 5372 5373 5374 5375 5376 5376 5376 5377 5382 5384
5356 5356 5356 5356 5356 5356 5355 5355 5356 5356 5355 5355 5355 5355 5355 5355 5355 5355 5355 5356 5358 5359 5358 5357 5357 5356 5359 5362 5366 5366 5365 5366 5367 5367 5368 5368 5371 5374
5344 5345 5345 5345 5346 5346 5346 5346 5346 5346 5345 5345 5346 5346 5345 5346 5346 5347 5348 5348 5349 5350 5350 5350 5349 5350 5351 5353 5354 5357 5358 5357 5358 5359 5360 5361 5363 5365
5334 5335 5335 5336 5336 5337 5337 5337 5337 5338 5337 5337 5338 5338 5338 5338 5339 5340 5340 5341 5341 5342 5343 5345 5345 5344 5343 5342 5344 5348 5350 5350 5351 5352 5353 5353 5355 5357
5325 5326 5327 5328 5328 5329 5329 5329 5330 5330 5330 5330 5331 5331 5331 5332 5332 5333 5334 5334 5335 5335 5336 5337 5336 5336 5335 5336 5339 5340 5342 5344 5345 5346 5347 5347 5346 5348
5317 5318 5320 5321 5321 5322 5322 5323 5323 5324 5325 5325 5326 5326 5326 5326 5327 5327 5327 5328 5328 5328 5329 5329 5329 5329 5330 5331 5331 5333 5334 5336 5338 5340 5342 5343 5343 5344